Content
SEND FEEDBACK

Daily
Averages
Monthly
Summary
United States of America

MORRISVILLE, NORTH CAROLINA


Home > North America > United States > North Carolina
Elevation: 387 feet     Latitude: 35 52N     Longitude: 078 47W

WEATHER
 
SELECT A DAY
Number of Records: 196,687;   Date Range: 1/1/95 - 11/22/14
 
SHARE

PRINT THIS DATA

[ ← Previous Day ]
WEATHER ALMANAC - FEBRUARY 13, 2013
[ Next Day → ]
[ °C ]   °F
Weather ElementAverageHighLow
Temperature45.6 °F48 °F (1:51 am)42.8 °F (7:23 am)
Dewpoint42.5 °F45 °F (2:51 pm)33.1 °F (11:51 pm)
Humidity89.4 %93 % (4:51 am)63 % (1:51 am)
Barometer29.75 in29.90 in (1:51 am)29.64 in (2:22 pm)
Wind Speed3.7 mph10.4 mph (10:51 pm)
Wind Gust16.1 mph (10:51 pm)
Weather ElementAverage
Visibility4.5 mi
Wind DirectionESE (121.4 °)

Weather ElementTotal
Precipitation0.30 in
Heating Degree Days19.6 (Base 65)
Averaged from 36 records on February 13, 2013
WEATHER CONDITIONS BREAKOUT
WIND DIRECTION BREAKOUT
WEATHER BY HOUR - FEBRUARY 13, 2013
[ °C ]   °F
Local TimeTemperatureDewpointHumidityBarometerVisibilityWind DirectionWind SpeedGust SpeedPrecipitationEventsConditions
1:51 AM48.0 °F36.0 °F63 %29.90 in10.0 miCalm0.00 inOvercast
2:51 AM48.0 °F37.0 °F66 %29.87 in10.0 miCalm0.00 inRainLight Rain
3:51 AM45.0 °F42.1 °F90 %29.86 in8.0 miCalm0.02 inRainLight Rain
4:51 AM44.1 °F42.1 °F93 %29.83 in5.0 miCalm0.05 inRainLight Rain
5:17 AM44.6 °F42.8 °F93 %29.84 in2.0 miWest (260°)3.5 mph0.05 inRainLight Rain
5:51 AM44.1 °F42.1 °F93 %29.83 in3.0 miCalm0.08 inRainLight Rain
6:51 AM43.0 °F41.0 °F93 %29.84 in3.0 miCalm0.03 inRainLight Rain
7:23 AM42.8 °F41.0 °F93 %29.84 in1.5 miCalm0.01 inLight Drizzle
7:51 AM43.0 °F41.0 °F93 %29.84 in1.5 miEast (90°)3.5 mph0.02 inLight Drizzle
8:04 AM44.6 °F41.0 °F87 %29.83 in3.0 miESE (120°)4.6 mph0.00 inOvercast
8:51 AM44.1 °F41.0 °F89 %29.84 in10.0 miENE (70°)4.6 mph0.00 inOvercast
9:20 AM44.6 °F42.8 °F93 %29.82 in1.5 miENE (60°)3.5 mph0.00 inLight Drizzle
9:51 AM44.1 °F42.1 °F93 %29.81 in1.5 miCalm0.00 inLight Drizzle
10:15 AM44.6 °F42.8 °F93 %29.78 in3.0 miEast (80°)5.8 mph0.00 inOvercast
10:51 AM45.0 °F43.0 °F93 %29.79 in3.0 miEast (80°)5.8 mph0.00 inLight Drizzle
10:58 AM44.6 °F42.8 °F93 %29.79 in1.5 miCalm0.00 inLight Drizzle
11:51 AM46.0 °F43.0 °F89 %29.73 in1.5 miEast (100°)5.8 mph0.01 inOvercast
12:34 PM46.4 °F42.8 °F87 %29.70 in7.0 miESE (110°)3.5 mphOvercast
12:51 PM46.0 °F44.1 °F93 %29.70 in8.0 miENE (60°)3.5 mphOvercast
1:21 PM46.4 °F44.6 °F93 %29.68 in1.5 miCalm0.00 inLight Drizzle
1:51 PM46.0 °F44.1 °F93 %29.65 in1.5 miCalm0.00 inLight Drizzle
2:22 PM46.4 °F44.6 °F93 %29.64 in1.0 miCalm0.00 inLight Drizzle
2:51 PM46.9 °F45.0 °F93 %29.65 in1.0 miCalm0.01 inLight Drizzle
3:12 PM46.4 °F44.6 °F93 %29.65 in1.5 miSSW (210°)5.8 mph0.00 inLight Drizzle
3:47 PM46.4 °F44.6 °F93 %29.64 in1.0 miSW (230°)3.5 mph0.00 inLight Drizzle
3:51 PM46.9 °F45.0 °F93 %29.65 in1.0 miWSW (240°)4.6 mph0.00 inLight Drizzle
4:41 PM46.4 °F44.6 °F93 %29.64 in2.0 miSW (230°)8.1 mph0.01 inLight Drizzle
4:51 PM46.9 °F45.0 °F93 %29.65 in2.0 miWSW (250°)8.1 mph0.01 inLight Drizzle
5:51 PM46.9 °F45.0 °F93 %29.66 in2.0 miWSW (250°)3.5 mph0.00 inLight Drizzle
6:21 PM46.4 °F44.6 °F93 %29.69 in7.0 miWSW (250°)9.2 mph0.00 inOvercast
6:51 PM46.9 °F45.0 °F93 %29.69 in7.0 miWest (260°)8.1 mph0.00 inOvercast
7:51 PM46.9 °F44.1 °F90 %29.70 in10.0 miWest (280°)8.1 mphMostly Cloudy
8:51 PM46.9 °F44.1 °F90 %29.73 in10.0 miWest (260°)8.1 mphMostly Cloudy
9:51 PM46.9 °F44.1 °F90 %29.77 in10.0 miWest (280°)4.6 mphMostly Cloudy
10:51 PM46.0 °F39.0 °F76 %29.80 in10.0 miWNW (300°)10.4 mph16.1 mphMostly Cloudy
11:51 PM43.0 °F33.1 °F68 %29.83 in10.0 miWNW (300°)5.8 mphPartly Cloudy
Hourly data recorded from KRDU, located miles away from Morrisville, North Carolina







STORIES FROM OUR PARTNERS